Other Public Products
Issued by NWS Grand Forks, ND

Home | Current Version | Previous Version | Text Only | Print | Product List | Glossary On
Versions: 1 2 3 4 5 6 7 8 9 10 11 12 13 14 15 16 17 18 19 20 21 22 23 24 25 26 27 28 29 30 31 32 33 34 35 36 37 38 39 40 41 42 43 44 45 46 47 48 49 50
000
FPUS83 KFGF 180431
OPUFGF
PRAIRIE TO PINES WEATHER ROUNDUP
NATIONAL WEATHER SERVICE EASTERN NORTH DAKOTA/GRAND FORKS ND
1100 PM CDT THU APR 17 2014

 **SATELLITE DATA USED TO AUGMENT SKY COVER AT AUTOMATED STATIONS**
 *****  WEATHER ACROSS EASTERN NORTH DAKOTA  *****

CITY           SKY/WX    TMP DP  RH WIND       PRES   REMARKS
GRAND FORKS    CLOUDY    33  18  53 NE6       30.30S
GRAND FORKS AF CLOUDY    34  12  40 E6        30.30S
GRAND CITY NWS   N/A     34 N/A N/A E6          N/A
BUXTON           N/A     34  25  70 NE3         N/A
DEVILS LAKE    MOCLDY    34  16  47 E16       30.23F WCI  23
FARGO          CLOUDY    34  20  56 NE7       30.29S
WAHPETON ARPT  CLOUDY    34  19  55 E5        30.28F
$$

 *****  WEATHER ACROSS CENTRAL AND WESTERN NORTH DAKOTA  *****

CITY           SKY/WX    TMP DP  RH WIND       PRES   REMARKS
JAMESTOWN      PTCLDY    31  19  61 E10       30.21S WCI  22
BISMARCK       MOCLDY    33  23  66 SE8       30.14S
MINOT          CLOUDY    35  21  56 E10       30.12F
MINOT AFB      CLOUDY    34  23  64 E14       30.12F WCI  24
GARRISON         N/A     36  24  62 SE12      30.10F
WILLISTON      MOCLDY    39  26  59 SE9       30.01S
DICKINSON      CLOUDY    38  26  62 SE17      30.00S
HETTINGER      CLOUDY    36  26  67 SE14      30.02S
$$

 *****  OTHER OBSERVATIONS NORTHEAST NORTH DAKOTA  *****

CITY           SKY/WX    TMP DP  RH WIND       PRES   REMARKS
WALHALLA       FAIR      28  18  64 SE3       30.30F
LANGDON        CLOUDY    28  16  59 E10       30.25S WCI  19
CAVALIER       FAIR      32  18  55 E7        30.30F
GRAFTON        FAIR      30  21  69 E8        30.30F WCI  23
CANDO          CLOUDY    32  18  55 E15       30.23S WCI  22
FORT TOTTEN    NOT AVBL
ROLLA          CLOUDY    32  18  55 SE14      30.22S WCI  22
RUGBY          CLOUDY    32  19  59 SE20      30.18S WCI  20
 ***** THE ABOVE OBSERVATIONS ARE NON NWS ARE NOT QUALITY
        CONTROLLED AND MAY MIS-REPORT RAIN FOR SNOW...
$$

 *****  OTHER OBSERVATIONS SOUTHEAST NORTH DAKOTA *****

CITY           SKY/WX    TMP DP  RH WIND       PRES   REMARKS
COOPERSTOWN    FAIR      32  19  59 E12       30.24F WCI  23
VALLEY CITY    NOT AVBL
OAKES          CLOUDY    34  21  60 SE10      30.24S
GWINNER        MOCLDY    32  23  69 SE7       30.27S
SHEYENNE NWR     N/A     29  18  63 E5        29.95S WCI  24
BUFFALO          N/A     32  19  58 E10         N/A  WCI  24
WYNDMERE       NOT AVBL
 ***** THE ABOVE OBSERVATIONS ARE NON NWS ARE NOT QUALITY
       CONTROLLED AND MAY MIS-REPORT RAIN FOR SNOW...
$$

  *****  WEATHER ACROSS NORTHERN MINNESOTA  *****

CITY           SKY/WX    TMP DP  RH WIND       PRES   REMARKS
FLAG ISLAND    CLEAR     28   7  40 CALM      30.30S
WARROAD        CLEAR     25  16  68 CALM      30.31S
ROSEAU         CLEAR     28  18  64 CALM      30.31R
HALLOCK        CLOUDY    30  18  59 NE5       30.31S
THF RVR FALLS  PTCLDY    30  18  59 N3        30.30S
HALSTAD          N/A     32  23  70 NE8         N/A  WCI  24
FOSSTON        MOCLDY    27  18  69 CALM      30.29R
BAUDETTE       CLEAR     25  17  72 CALM      30.30S
WASKISH        CLEAR     27  18  69 CALM      30.29F
CROOKSTON      PTCLDY    32  21  64 NE6       30.31F
$$
  *****  WEATHER ACROSS CENTRAL AND WEST MINNESOTA  *****

CITY           SKY/WX    TMP DP  RH WIND       PRES   REMARKS
BEMIDJI        MOCLDY    29  10  44 CALM      30.27S
PARK RAPIDS    PTCLDY    32  11  41 N5        30.26S
WADENA         PTCLDY    30  16  55 W3        30.27S
DETROIT LAKES  PTCLDY    32  21  64 N5        30.29S
MOORHEAD       CLOUDY    36  21  55 E3        30.30S
FERGUS FALLS   CLEAR     32  18  55 E5        30.27S
ELBOW LAKE     FAIR      31  23  73 SW3       30.29R
MORRIS MN      CLEAR     30  23  74 CALM      30.29R
STAPLES        CLEAR     28  18  64 CALM      30.27S
WHEATON        PTCLDY    34  25  69 S5        30.30F
$$
  *****  WEATHER ELSEWHERE ACROSS MINNESOTA  *****

CITY           SKY/WX    TMP DP  RH WIND       PRES   REMARKS
DULUTH         CLEAR     26  19  74 CALM      30.28F
INTRNTL FALLS  CLEAR     26  20  77 CALM      30.30R
ELY            CLEAR     27  21  80 CALM      30.28S
CLOQUET        CLEAR     25  23  93 CALM      30.29S
BRAINERD       CLEAR     31  20  63 CALM      30.27F
HIBBING        CLEAR     24  20  84 CALM      30.29R
ALEXANDRIA     CLEAR     31  22  69 SW7       30.28F WCI  24
SAINT CLOUD    CLEAR     29  22  75 CALM      30.29S
MINNEAPOLIS    CLEAR     34  25  69 CALM      30.31S
$$

  *****  WEATHER ACROSS SOUTH DAKOTA  *****

CITY           SKY/WX    TMP DP  RH WIND       PRES   REMARKS
SIOUX FALLS    CLOUDY    38  25  59 E8        30.26F
BROOKINGS      NOT AVBL
WATERTOWN      CLOUDY    32  16  51 SE7       30.25F
HURON          CLOUDY    39  28  64 SE10      30.21F
SISSETON         N/A     30  22  72 SW6       30.27S WCI  24
ABERDEEN       CLOUDY    36  21  54 SE9       30.22F
MITCHELL       PTCLDY    39  26  59 E13       30.22F
PIERRE         CLEAR     38  25  59 SE16      30.09F
MOBRIDGE       CLEAR     34  22  61 SE15      30.11F WCI  24
RAPID CITY     CLEAR     41  33  73 SE9       29.97S
$$

  *****  SOME WEATHER IN NEARBY STATES *****

CITY           SKY/WX    TMP DP  RH WIND       PRES   REMARKS
GLASGOW MT     MOCLDY    44  33  65 E22       29.82F
GREAT FALLS MT LGT RAIN  48  42  80 W3        29.73R
CHEYENNE WY    PTCLDY    45  25  45 S10G18    30.01S
SCOTTSBLUFF NE CLEAR     46  37  71 SE16      29.97S
OMAHA NE       CLEAR     41  30  65 CALM      30.27S
DES MOINES IA  CLEAR     45  31  58 E8        30.29F
DAVENPORT IA   PTCLDY    40  33  76 NW7       30.29S
CHICAGO IL     CLOUDY    51  37  58 W3        30.24S
EAU CLAIRE WI  CLEAR     27  25  92 CALM      30.31F
LA CROSSE WI   CLOUDY    38  28  67 N5        30.32S
$$

  *****  SOME NATIONAL WEATHER *****

CITY           SKY/WX    TMP DP  RH WIND       PRES   REMARKS
LA GUARDIA NY  PTCLDY    39  26  59 E8        30.61S
RALEIGH NC     PTCLDY    48  37  65 E12       30.47S
ATLANTA GA     CLOUDY    58  39  49 E12       30.31R
NEW ORLEANS LA CLOUDY    64  59  83 E13G23    30.11S
OKLAHOMA CITY  CLOUDY    53  40  61 NE8       30.25R
ALBUQUERQUE NM CLEAR     60  25  26 E16       30.13R
SALT LAKE CITY MOCLDY    59  30  33 SE9       29.84R
LOS ANGELES CA CLOUDY    62  52  69 SE6       29.90R
BOISE ID       LGT RAIN  55  47  74 NW23G37   29.78R
SEATTLE WA     CLOUDY    47  44  90 SW22G28   29.80R
$$

*** WEATHER ACROSS MANITOBA...SASKATCHEWAN AND ONTARIO ***
                ***ONTARIO***

CITY           SKY/WX    TMP DP  RH WIND       PRES   REMARKS
GERALDTON      LGT SNOW  28  27  93 N3        30.24S
THUNDER BAY    FLURRIES  30  28  93 W5        30.28R
SIOUX LOOKOUT  CLEAR     23  19  86 S5        30.30R WCI  17
TORONTO        MOCLDY    41  28  60 SE2       30.34S
BIG TROUT LK   CLEAR     16   1  53 CALM      30.30S
PICKLE LAKE    NOT AVBL
DRYDEN         CLEAR     27  19  74 S7        30.29S WCI  19
KENORA         CLEAR     30   3  31 N3        30.30
$$
                *** MANITOBA***

CITY           SKY/WX    TMP DP  RH WIND       PRES   REMARKS
BRANDON        PTCLDY    27  21  80 E12       30.26F WCI  16
DAUPHIN        CLEAR     27  16  63 SE9       30.27F WCI  17
ISLAND LAKE    PTCLDY    21  12  68 CALM      30.32S
PILOT MOUND      N/A     27  18  69 E8          N/A  WCI  18
THE PAS        CLEAR     27   5  39 SE8       30.28S WCI  18
THOMPSON       CLEAR     12   7  79 CALM      30.29R
WINNIPEG       CLEAR     23  12  63 NE3       30.33F
LYNN LAKE      CLEAR     23   1  39 N2        30.24S
CHURCHILL      CLEAR     16  14  93 N6        30.30R WCI   7
GILLAM         PTCLDY    21   7  53 SW5       30.29S WCI  15
$$
                ***SASKATCHEWAN***

CITY           SKY/WX    TMP DP  RH WIND       PRES   REMARKS
ESTEVAN        MOCLDY    34  21  60 SE14      30.07F WCI  24
KINDERSLEY     LGT RAIN  37  34  87 E18       29.78F
LLOYDMINSTER   FLURRIES  30  27  86 E13       29.86F WCI  20
PRINCE ALBERT  MOCLDY    30  19  64 SE15G22   30.08F WCI  19
REGINA         CLOUDY    36  23  60 SE25G32   30.02S



USA.gov is the U.S. government's official web portal to all federal, state and local government web resources and services.